User: anonymous   Login
Location: Unspecified
(0.0000°N, 0.0000°E)
Time: 14:07:22
(UTC+00:00)
Language:

Envisat - Orbit

View from above orbital plane
View from above orbital plane
View from above satellite
View from above satellite

Ground track
Ground track

The orbit data is extracted from the following two-line orbital elements,

1 27386U 02009A   18115.14412741 -.00000006  00000-0  11561-4 0  9992
2 27386  98.1900 151.6890 0001403  90.9037 336.8368 14.37920350845908
Epoch (UTC): 25 April 2018 03:27:32
Eccentricity: 0.0001403
inclination: 98.1900°
perigee height: 764 km
apogee height: 766 km
right ascension of ascending node: 151.6890°
argument of perigee: 90.9037°
revolutions per day: 14.37920350
mean anomaly at epoch: 336.8368°
orbit number at epoch: 84590

The dashed part of the orbit path shows where the satellite is in the earth's shadow,  

DLR